104  
ASUS41 KPHI 241911  
RWRPHI  
 
REGIONAL WEATHER ROUNDUP  
NATIONAL WEATHER SERVICE MOUNT HOLLY NJ  
200 PM EST TUE JAN 24 2017  
 
NOTE: "FAIR" INDICATES FEW OR NO CLOUDS BELOW 12,000 FEET WITH NO  
SIGNIFICANT WEATHER AND/OR S TO VISIBILITY
.  
 
* = STATION DOES NOT REPORT PRECIPITATION (E.G. RAIN, SNOW, ETC.)  
OR FOG.
 
 
NJZ015>026-242000-  
SOUTHERN NEW JERSEY  
 
CITY SKY/WX TMP DP RH WIND PRES REMARKS
 
POMONA CLOUDY 41 37 86 NW20G26 29.34S  
WILDWOOD* CLOUDY 42 37 82 NW13G21 29.38S  
MILLVILLE CLOUDY 43 38 82 NW14G20 29.38S  
WRIGHTSTOWN RAIN 39 37 93 NW13G22 29.33R WCI 31  
MOUNT HOLLY CLOUDY 42 35 76 NW10G18 29.37R  
TRENTON CLOUDY 41 36 82 NW13G21 29.35S  
 

 
NJZ001>014-242000-  
NORTHERN NEW JERSEY  
 
CITY SKY/WX TMP DP RH WIND PRES REMARKS
 
SUSSEX LGT RAIN 37 35 92 N7 29.36F FOG WCI 32  
ANDOVER* N/A 36 33 89 N7G17 29.37F WCI 30  
MORRISTOWN LGT RAIN 37 36 93 N15G21 29.36S FOG WCI 28  
NEWARK RAIN 38 35 89 NW18G26 29.34R FOG WCI 28  
TETERBORO LGT RAIN 36 34 93 N14G23 29.34R WCI 27  
CALDWELL RAIN 37 34 89 N6 29.36S FOG WCI 32  
SOMERVILLE LGT RAIN 39 35 86 N10 29.35S FOG WCI 32  
ALLAIRE* LGT RAIN 37 36 96 NW15G28 29.32R WCI 28  
TOMS RIVER* LGT RAIN 37 36 93 NW13G22 29.33R FOG WCI 29  
 

 
PAZ043-044-047-054-055-060>062-066>071-242000-  
EASTERN PENNSYLVANIA  
 
CITY SKY/WX TMP DP RH WIND PRES REMARKS
 
PHILADELPHIA CLOUDY 46 35 65 NW17 29.39S  
NORTH PHILA CLOUDY 45 36 70 NW15G22 29.38S  
BLUE BELL* CLOUDY 43 34 70 NW10G17 29.38R  
DOYLESTOWN CLOUDY 44 36 73 NW14G22 29.37R  
QUAKERTOWN* CLOUDY 43 36 75 NW8G20 29.40R  
PERKASIE* CLOUDY 41 34 75 NW12G25 29.39R  
POTTSTOWN CLOUDY 42 33 70 NW17 29.41S  
LANCASTER CLOUDY 40 33 76 NW20G29 29.46R WCI 30  
COATESVILLE CLOUDY 39 34 81 NW16G25 29.43R WCI 30  
READING CLOUDY 41 34 76 NW17 29.43S  
ALLENTOWN CLOUDY 42 33 70 NW14 29.40S  
MOUNT POCONO CLOUDY 32 29 88 NW16G26 29.35S WCI 21  
HAZLETON CLOUDY 34 32 93 NW10 29.43S WCI 26  
LEHIGHTON N/A 39 32 75 CALM 29.44R  
WILKES BARRE LGT RAIN 37 32 82 NW14 29.44R WCI 28  
 

 
DEZALL-MDZ008-012-015-019-020-242000-  
DELAWARE AND EASTERN MARYLAND  
 
CITY SKY/WX TMP DP RH WIND PRES REMARKS
 
WILMINGTON CLOUDY 45 35 68 NW23 29.42R  
DOVER CLOUDY 45 45 100 W17 29.39R  
GEORGETOWN CLOUDY 47 35 63 NW15G23 29.40F  
EASTON CLOUDY 46 36 66 NW14G23 29.48  
ABERDEEN CLOUDY 44 35 70 NW9G21 29.46R  
PATUXENT CLOUDY 47 36 65 NW21G28 29.48S  
OCEAN CITY CLOUDY 45 37 73 NW15G25 29.41R  
WALLOPS ISLAND PTSUNNY 46 38 73 W16G28 29.43F  
CAMBRIDGE CLOUDY 45 36 70 NW9G21 29.45S  
SALISBURY CLOUDY 46 36 68 NW16G28 29.42S  
 

 
PAZ001-021-NYZ056-072-MDZ011-DCZ001-242000-  
OTHER NEARBY LOCATIONS  
 
CITY SKY/WX TMP DP RH WIND PRES REMARKS
 
HARRISBURG CLOUDY 42 34 73 NW16G26 29.49S  
STATE COLLEGE CLOUDY 36 30 80 NW8 29.55S WCI 29  
WILLIAMSPORT LGT RAIN 35 33 92 W12 29.51S WCI 27  
BINGHAMTON CLOUDY 32 30 92 NW10 29.45S WCI 24  
NEW YORK CITY LGT RAIN 36 35 96 NW8 29.34R FOG WCI 30  
BALTIMORE CLOUDY 45 34 65 NW22G39 29.47S  
WASHINGTON DC CLOUDY 48 36 63 NW16G35 29.52S  
 

 
 
 
CLICK HERE TO GO TO PREVIOUS BULLETINS.

The Nexlab PA Page
The Nexlab NJ Page
The Nexlab DE Page
The Nexlab MD Page Main Text Page